This is the latest recevied weather packets stored in our database for station/object KB1WCR. If no packets are shown the sender has not sent any weather packets the latest 10 day(s).
| Time | Temp. | Humidity | Pressure | Rain* | Wind** | Luminosity | Snow |
|---|---|---|---|---|---|---|---|
| 1787930562 | 24.44° C | 87% | 1015.9 hPa | 0 mm | - | 268 W/m² | - |
| 1787930257 | 24.44° C | 88% | 1015.8 hPa | 0 mm | - | 262 W/m² | - |
| 1787929956 | 23.89° C | 87% | 1015.8 hPa | 0 mm | - | 236 W/m² | - |
| 1787929650 | 23.89° C | 88% | 1015.9 hPa | 0 mm | - | 220 W/m² | - |
| 1787929350 | 24.44° C | 87% | 1015.9 hPa | 0 mm | - | 249 W/m² | - |
| 1787929047 | 23.89° C | 88% | 1015.9 hPa | 0 mm | - | 237 W/m² | - |
| 1787928743 | 23.89° C | 90% | 1016 hPa | 0 mm | - | 255 W/m² | - |
| 1787928441 | 23.89° C | 89% | 1016 hPa | 0 mm | - | 245 W/m² | - |
| 1787928141 | 23.89° C | 90% | 1015.9 hPa | 0 mm | - | 225 W/m² | - |
| 1787927840 | 23.33° C | 91% | 1015.9 hPa | 0 mm | - | 230 W/m² | - |
| 1787927535 | 23.33° C | 91% | 1015.9 hPa | 0 mm | - | 231 W/m² | - |
| 1787927230 | 23.33° C | 91% | 1016.2 hPa | 0 mm | - | 189 W/m² | - |
| 1787926920 | 23.33° C | 93% | 1016.1 hPa | 0 mm | - | 177 W/m² | - |
| 1787926620 | 23.33° C | 92% | 1015.8 hPa | 0 mm | - | 207 W/m² | - |
| 1787926319 | 22.78° C | 93% | 1016.2 hPa | 0 mm | - | 345 W/m² | - |
| 1787926014 | 22.78° C | 93% | 1016 hPa | 0 mm | - | 144 W/m² | - |
| 1787925714 | 22.78° C | 93% | 1016.1 hPa | 0 mm | - | 118 W/m² | - |
| 1787925408 | 22.78° C | 93% | 1016 hPa | 0 mm | - | 154 W/m² | - |
| 1787925107 | 22.78° C | 92% | 1015.8 hPa | 0 mm | - | 199 W/m² | - |
| 1787924806 | 23.33° C | 92% | 1016 hPa | 0 mm | - | 211 W/m² | - |
| 1787924501 | 23.33° C | 93% | 1016.1 hPa | 0 mm | - | 328 W/m² | - |
| 1787924197 | 22.78° C | 94% | 1015.8 hPa | 0 mm | - | 688 W/m² | - |
| 1787923891 | 22.22° C | 95% | 1015.9 hPa | 0 mm | - | 193 W/m² | - |
| 1787923586 | 22.22° C | 96% | 1015.8 hPa | 0 mm | - | 171 W/m² | - |
| 1787923281 | 22.22° C | 95% | 1015.8 hPa | 0 mm | - | 141 W/m² | - |
* Rain latest hour (hover to see other rain measurements)
** Current wind speed in m/s (hover to see current wind gust speed)